| time (UTC) | temp F | wind direction | speed MPH | gust MPH | rain 1hr in | rain 24hr in | rain mn in | humidity % | barometer mb |
| 20260901163050 | 67 | 228 | 0.0 | 0.0 | 0.00 | 0.00 | 0.00 | 44 | 1007.1 |
| 20260901161605 | 67 | 228 | 0.0 | 0.0 | 0.00 | 0.00 | 0.00 | 36 | 1007.2 |
| 20260901160047 | 67 | 228 | 0.0 | 0.0 | 0.00 | 0.00 | 0.00 | 40 | 1007.1 |
| 20260901154552 | 65 | 226 | 0.0 | 0.0 | 0.00 | 0.00 | 0.00 | 41 | 1007.2 |
| 20260901153045 | 63 | 190 | 0.0 | 1.0 | 0.00 | 0.00 | 0.00 | 42 | 1007.2 |
| 20260901151534 | 62 | 204 | 0.0 | 1.0 | 0.00 | 0.00 | 0.00 | 46 | 1007.5 |
| 20260901150036 | 60 | 224 | 0.0 | 2.0 | 0.00 | 0.00 | 0.00 | 46 | 1007.7 |
| 20260901144535 | 59 | 204 | 0.0 | 0.0 | 0.00 | 0.00 | 0.00 | 50 | 1007.7 |
| 20260901143022 | 58 | 220 | 0.0 | 0.0 | 0.00 | 0.00 | 0.00 | 51 | 1007.8 |
| 20260901141517 | 57 | 205 | 0.0 | 0.0 | 0.00 | 0.00 | 0.00 | 50 | 1007.9 |
| 20260901140016 | 55 | 222 | 0.0 | 0.0 | 0.00 | 0.00 | 0.00 | 54 | 1008.0 |
| 20260901134512 | 54 | 221 | 0.0 | 0.0 | 0.00 | 0.00 | 0.00 | 56 | 1007.9 |
| 20260901133007 | 53 | 209 | 0.0 | 1.0 | 0.00 | 0.00 | 0.00 | 58 | 1007.8 |
| 20260901131506 | 53 | 209 | 0.0 | 1.0 | 0.00 | 0.00 | 0.00 | 58 | 1007.7 |
| 20260901130002 | 53 | 227 | 0.0 | 0.0 | 0.00 | 0.00 | 0.00 | 53 | 1007.8 |
| 20260901124601 | 53 | 178 | 0.0 | 0.0 | 0.00 | 0.00 | 0.00 | 47 | 1007.7 |
| 20260901123058 | 54 | 178 | 0.0 | 0.0 | 0.00 | 0.00 | 0.00 | 51 | 1007.9 |
| 20260901121558 | 55 | 167 | 0.0 | 1.0 | 0.00 | 0.00 | 0.00 | 52 | 1007.8 |
| 20260901120057 | 54 | 173 | 0.0 | 1.0 | 0.00 | 0.00 | 0.00 | 46 | 1007.8 |
| 20260901114637 | 55 | 159 | 0.0 | 0.0 | 0.00 | 0.00 | 0.00 | 53 | 1007.9 |
| 20260901113057 | 54 | 159 | 0.0 | 0.0 | 0.00 | 0.00 | 0.00 | 46 | 1007.8 |
| 20260901111557 | 53 | 206 | 0.0 | 0.0 | 0.00 | 0.00 | 0.00 | 52 | 1007.8 |
| 20260901110055 | 53 | 211 | 0.0 | 0.0 | 0.00 | 0.00 | 0.00 | 54 | 1007.7 |
| 20260901104553 | 53 | 211 | 0.0 | 0.0 | 0.00 | 0.00 | 0.00 | 57 | 1007.9 |
| 20260901103051 | 54 | 211 | 0.0 | 0.0 | 0.00 | 0.00 | 0.00 | 62 | 1008.0 |
| 20260901101550 | 54 | 213 | 0.0 | 0.0 | 0.00 | 0.00 | 0.00 | 47 | 1008.2 |
| 20260901100054 | 54 | 214 | 0.0 | 0.0 | 0.00 | 0.00 | 0.00 | 47 | 1008.2 |
| 20260901094546 | 55 | 213 | 0.0 | 0.0 | 0.00 | 0.00 | 0.00 | 46 | 1008.2 |
| 20260901093044 | 55 | 213 | 0.0 | 0.0 | 0.00 | 0.00 | 0.00 | 43 | 1008.5 |
| 20260901091544 | 55 | 208 | 0.0 | 0.0 | 0.00 | 0.00 | 0.00 | 42 | 1008.6 |
| 20260901090047 | 56 | 197 | 0.0 | 0.0 | 0.00 | 0.00 | 0.00 | 38 | 1008.9 |
| 20260901084544 | 56 | 174 | 0.0 | 1.0 | 0.00 | 0.00 | 0.00 | 38 | 1009.0 |
| 20260901083039 | 57 | 221 | 0.0 | 3.0 | 0.00 | 0.00 | 0.00 | 38 | 1009.0 |
| 20260901081534 | 54 | 192 | 0.0 | 1.0 | 0.00 | 0.00 | 0.00 | 41 | 1009.1 |
| 20260901080031 | 53 | 227 | 0.0 | 0.0 | 0.00 | 0.00 | 0.00 | 44 | 1009.1 |
| 20260901074528 | 53 | 211 | 0.0 | 2.0 | 0.00 | 0.00 | 0.00 | 45 | 1009.3 |
| 20260901073028 | 53 | 223 | 0.0 | 0.0 | 0.00 | 0.00 | 0.00 | 44 | 1009.4 |
| 20260901071524 | 52 | 245 | 0.0 | 0.0 | 0.00 | 0.00 | 0.00 | 45 | 1009.6 |
| 20260901070023 | 52 | 227 | 0.0 | 3.0 | 0.00 | 0.00 | 0.00 | 46 | 1009.7 |
| 20260901064522 | 53 | 209 | 0.0 | 4.0 | 0.00 | 0.00 | 0.00 | 44 | 1009.9 |
| 20260901063025 | 53 | 198 | 0.0 | 3.0 | 0.00 | 0.00 | 0.00 | 43 | 1009.9 |
| 20260901061517 | 53 | 226 | 0.0 | 0.0 | 0.00 | 0.00 | 0.00 | 45 | 1010.3 |
| 20260901060016 | 53 | 233 | 0.0 | 0.0 | 0.00 | 0.00 | 0.00 | 44 | 1010.5 |
| 20260901054513 | 53 | 211 | 0.0 | 1.0 | 0.00 | 0.00 | 0.00 | 43 | 1010.5 |
| 20260901053013 | 54 | 205 | 0.0 | 2.0 | 0.00 | 0.00 | 0.00 | 42 | 1010.5 |
| 20260901051512 | 55 | 211 | 0.0 | 1.0 | 0.00 | 0.00 | 0.00 | 41 | 1010.5 |
| 20260901050012 | 55 | 208 | 0.0 | 3.0 | 0.00 | 0.00 | 0.00 | 39 | 1010.7 |
| 20260901044526 | 55 | 219 | 0.0 | 1.0 | 0.00 | 0.00 | 0.00 | 39 | 1010.7 |
| 20260901043011 | 55 | 227 | 0.0 | 3.0 | 0.00 | 0.00 | 0.00 | 41 | 1010.7 |
| 20260901041522 | 56 | 207 | 0.0 | 2.0 | 0.00 | 0.00 | 0.00 | 39 | 1010.7 |
| 20260901040009 | 56 | 219 | 0.0 | 3.0 | 0.00 | 0.00 | 0.00 | 39 | 1010.6 |
| 20260901034508 | 56 | 225 | 0.0 | 1.0 | 0.00 | 0.00 | 0.00 | 38 | 1010.7 |
| 20260901033021 | 56 | 207 | 0.0 | 1.0 | 0.00 | 0.00 | 0.00 | 38 | 1010.6 |
| 20260901031509 | 58 | 216 | 0.0 | 0.0 | 0.00 | 0.00 | 0.00 | 37 | 1010.6 |
| 20260901030007 | 59 | 208 | 0.0 | 0.0 | 0.00 | 0.00 | 0.00 | 34 | 1010.3 |
| 20260901024506 | 60 | 197 | 0.0 | 0.0 | 0.00 | 0.00 | 0.00 | 40 | 1009.9 |
| 20260901023005 | 61 | 157 | 0.0 | 0.0 | 0.00 | 0.00 | 0.00 | 40 | 1009.8 |
| 20260901021512 | 63 | 86 | 0.0 | 0.0 | 0.00 | 0.00 | 0.00 | 38 | 1009.6 |
| 20260901020005 | 65 | 86 | 0.0 | 0.0 | 0.00 | 0.00 | 0.00 | 31 | 1009.6 |
| 20260901014504 | 68 | 85 | 0.0 | 0.0 | 0.00 | 0.00 | 0.00 | 25 | 1009.6 |
| 20260901013004 | 71 | 84 | 0.0 | 0.0 | 0.00 | 0.00 | 0.00 | 19 | 1009.6 |
| 20260901011504 | 73 | 140 | 0.0 | 0.0 | 0.00 | 0.00 | 0.00 | 15 | 1009.6 |
| 20260901010008 | 74 | 121 | 0.0 | 1.0 | 0.00 | 0.00 | 0.00 | 14 | 1009.5 |
| 20260901004501 | 74 | 89 | 0.0 | 2.0 | 0.00 | 0.00 | 0.00 | 14 | 1009.2 |
| 20260901003100 | 75 | 106 | 0.0 | 1.0 | 0.00 | 0.00 | 0.00 | 14 | 1009.1 |
| 20260901001601 | 76 | 111 | 0.0 | 4.0 | 0.00 | 0.00 | 0.00 | 14 | 1009.0 |
| 20260901000059 | 77 | 89 | 0.0 | 4.0 | 0.00 | 0.00 | 0.00 | 15 | 1009.0 |
| 20260831234603 | 77 | 84 | 0.0 | 1.0 | 0.00 | 0.00 | 0.00 | 13 | 1009.0 |
| 20260831233100 | 78 | 157 | 0.0 | 1.0 | 0.00 | 0.00 | 0.00 | 12 | 1009.0 |
| 20260831231600 | 78 | 140 | 0.0 | 2.0 | 0.00 | 0.00 | 0.00 | 14 | 1009.2 |
| 20260831230054 | 77 | 131 | 0.0 | 2.0 | 0.00 | 0.00 | 0.00 | 13 | 1009.5 |
| 20260831224553 | 77 | 122 | 0.0 | 3.0 | 0.00 | 0.00 | 0.00 | 13 | 1009.6 |
| 20260831223057 | 77 | 136 | 0.0 | 6.0 | 0.00 | 0.00 | 0.00 | 13 | 1009.5 |
| 20260831221604 | 77 | 142 | 0.0 | 11.0 | 0.00 | 0.00 | 0.00 | 14 | 1009.4 |
| 20260831220050 | 77 | 153 | 0.0 | 4.0 | 0.00 | 0.00 | 0.00 | 14 | 1009.7 |
| 20260831214558 | 77 | 117 | 0.0 | 8.0 | 0.00 | 0.00 | 0.00 | 15 | 1009.7 |
| 20260831213047 | 77 | 123 | 0.0 | 10.0 | 0.00 | 0.00 | 0.00 | 15 | 1009.9 |
| 20260831211549 | 76 | 80 | 0.0 | 9.0 | 0.00 | 0.00 | 0.00 | 17 | 1010.1 |
| 20260831210044 | 76 | 36 | 0.0 | 6.0 | 0.00 | 0.00 | 0.00 | 16 | 1010.1 |
| 20260831204545 | 76 | 117 | 0.0 | 5.0 | 0.00 | 0.00 | 0.00 | 17 | 1010.3 |
| 20260831203048 | 75 | 176 | 0.0 | 1.0 | 0.00 | 0.00 | 0.00 | 18 | 1010.5 |
| 20260831201546 | 75 | 182 | 0.0 | 2.0 | 0.00 | 0.00 | 0.00 | 17 | 1010.6 |
| 20260831200041 | 75 | 96 | 0.0 | 2.0 | 0.00 | 0.00 | 0.00 | 17 | 1010.9 |
| 20260831194539 | 75 | 132 | 0.0 | 4.0 | 0.00 | 0.00 | 0.00 | 17 | 1011.0 |
| 20260831193033 | 74 | 157 | 0.0 | 1.0 | 0.00 | 0.00 | 0.00 | 17 | 1011.2 |
| 20260831191529 | 74 | 136 | 0.0 | 5.0 | 0.00 | 0.00 | 0.00 | 18 | 1011.3 |
| 20260831190027 | 73 | 103 | 0.0 | 2.0 | 0.00 | 0.00 | 0.00 | 17 | 1011.5 |
| 20260831184529 | 72 | 114 | 0.0 | 7.0 | 0.00 | 0.00 | 0.00 | 19 | 1011.7 |
| 20260831183023 | 71 | 137 | 0.0 | 7.0 | 0.00 | 0.00 | 0.00 | 19 | 1012.0 |
| 20260831181521 | 71 | 136 | 0.0 | 7.0 | 0.00 | 0.00 | 0.00 | 20 | 1012.1 |
| 20260831180017 | 70 | 109 | 0.0 | 3.0 | 0.00 | 0.00 | 0.00 | 19 | 1012.2 |
| 20260831174514 | 70 | 130 | 0.0 | 9.0 | 0.00 | 0.00 | 0.00 | 19 | 1012.4 |
| 20260831173009 | 69 | 92 | 0.0 | 3.0 | 0.00 | 0.00 | 0.00 | 20 | 1012.3 |
| 20260831171507 | 68 | 95 | 0.0 | 3.0 | 0.00 | 0.00 | 0.00 | 20 | 1012.4 |
| 20260831170004 | 68 | 134 | 0.0 | 7.0 | 0.00 | 0.00 | 0.00 | 21 | 1012.4 |
| 20260831164504 | 68 | 132 | 0.0 | 7.0 | 0.00 | 0.00 | 0.00 | 23 | 1012.3 |